sat.trackr.live / text

‹ back to catalog

TECHNOSAT

NORAD 42829 · 2017-042E

PAYLOAD ACTIVE UNKNOWN

§ Identity

Operator
Country
GER
Launch date
2017-07-14
Launch site
TYMSC
Launch vehicle
Mass (kg)
RCS (m²)

Purposes: tech_demo

External: N2YO · Heavens-Above · Gunter

§ Orbital elements

Epoch: 2026-05-25T04:14:02.903136Z

Period
95.69 min
Inclination
97.4268°
Eccentricity
0.0018148
Mean motion
15.04796520 rev/d
Perigee alt
539.6 km
Apogee alt
564.7 km
Semi-major
6,930.3 km
B*
2.3215e-4
RAAN
303.7165°
Arg perigee
167.8642°
Mean anomaly
192.3026°
Rev number
48,324

§ Raw data

TECHNOSAT1 42829U 17042E   26145.17642249  .00003228  00000+0  23215-3 0  99922 42829  97.4268 303.7165 0018148 167.8642 192.3026 15.04796520483247

JSON: /api/v1/satellites/42829 · /tle

For live sub-satellite position, see the globe view (requires WebGL).

§ Visibility from observer

Set your observer location to see the next 7 days of passes ≥ 10°. The values pass through the URL so the page stays shareable.

No JS? Fill the form by hand. The geolocation button needs JavaScript.

§ Radio — SatNOGS DB

ModeDescriptionDownlinkUplink
CW CW Beacon 435.950 MHz
GMSK TLM GMSK 435.950 MHz

2 transmitters · refreshed weekly from db.satnogs.org